Tracking 31027 objects as of 19-Jul-2025
HD Live streaming from Space Station
objects crossing your sky now

STARLINK-6293

Track STARLINK-6293 now!
10-day predictions
STARLINK-6293 is classified as:


NORAD ID: 57354
Int'l Code: 2023-099AC
Perigee: 565.4 km
Apogee: 567.0 km
Inclination: 43.0 °
Period: 95.8 minutes
Semi major axis: 6937 km
RCS: Unknown
Launch date: July 16, 2023
Source: United States (US)
Launch site: AIR FORCE EASTERN TEST RANGE (AFETR)
Your satellite tracking list
FENGYUN 1C DEB
Track 1 satellite(s)




NASA's NSSDC Master Catalog

Two Line Element Set (TLE):
1 57354U 23099AC  25199.35851512 -.00000181  00000-0  16652-5 0  9999
2 57354  43.0050  69.5268 0001135 261.4149  98.6565 15.02534854111011
Source of the keplerian elements: AFSPC